Regional Weather Roundup
Issued by NWS

Home | Current Version | Previous Version | Text Only | Print | Product List | Glossary On
Versions: 1 2 3 4 5 6 7 8 9 10 11 12 13 14 15 16 17 18 19 20 21 22 23 24 25 26 27 28 29 30 31 32 33 34 35 36 37 38 39 40 41 42 43 44 45 46 47 48 49 50
000
ASUS45 KPSR 301410
RWRAZ

ARIZONA REGIONAL HOURLY WEATHER ROUNDUP
NATIONAL WEATHER SERVICE PHOENIX AZ
700 AM MST WED JUL 30 2014

NOTE: FAIR INDICATES FEW OR NO CLOUDS BELOW 12,000 FEET WITH NO
SIGNIFICANT WEATHER AND/OR OBSTRUCTIONS TO VISIBILITY.

AZZ001>003-036-301500-
NORTHWEST ARIZONA

CITY           SKY/WX    TMP DP  RH WIND       PRES   REMARKS
BULLHEAD CITY  SUNNY     88  52  29 CALM      29.87R
KINGMAN        SUNNY     76  52  43 CALM      30.06R
$$

AZZ004>008-015-016-018-301500-
NORTH CENTRAL ARIZONA

CITY           SKY/WX    TMP DP  RH WIND       PRES   REMARKS
GRAND CANYON   SUNNY     59  51  75 CALM      30.32R
WILLIAMS       SUNNY     59  50  72 SE7       30.38R
PRESCOTT       SUNNY     70  50  49 S6        30.19S
FLAGSTAFF      SUNNY     60  49  66 CALM      30.35R
PAYSON         SUNNY     70  52  52 CALM      30.22R
PAGE           SUNNY     78  52  40 NW3       30.14R
$$

AZZ009>014-017-301500-
NORTHEAST ARIZONA

CITY           SKY/WX    TMP DP  RH WIND       PRES   REMARKS
WINSLOW        SUNNY     71  51  49 CALM      30.19R
SAINT JOHNS    SUNNY     70  53  54 S3        30.24R
WINDOW ROCK    SUNNY     65  52  62 NW3       30.30F
SHOW LOW       SUNNY     66  50  55 S5        30.33R
$$

AZZ023-301500-
GREATER PHOENIX AREA

CITY           SKY/WX    TMP DP  RH WIND       PRES   REMARKS
PHOENIX        MOSUNNY   93  55  27 N5        29.86R
BUCKEYE          N/A     90  54  29 CALM      29.87S
GLENDALE       MOSUNNY   91  55  29 W3        29.88R
LUKE AFB       NOT AVBL
DEER VALLEY    SUNNY     87  57  35 CALM      29.89R
SCOTTSDALE     SUNNY     88  60  38 CALM      29.91R
MESA-FALCON    MOSUNNY   88  55  33 E6        29.89R
MESA-GATEWAY   MOSUNNY   86  57  37 E3        29.91R
CHANDLER       MOSUNNY   86  61  42 NE6       29.89R
$$

AZZ027-028-301500-
SOUTHWEST MARICOPA COUNTY AND PINAL COUNTY

CITY           SKY/WX    TMP DP  RH WIND       PRES   REMARKS
CASA GRANDE    SUNNY     86  57  37 CALM      29.92R
GILA BEND      SUNNY     91  57  31 S6        29.88
$$

AZZ503-504-507>509-301500-
SOUTHEAST ARIZONA

CITY           SKY/WX    TMP DP  RH WIND       PRES   REMARKS
TUCSON         SUNNY     83  59  44 S6        30.03R
DAVIS-MONTHAN  SUNNY     81  59  47 SE6       30.02R
RYAN FIELD       N/A     79  57  47 CALM      30.02R
NOGALES        PTSUNNY   73  56  54 CALM      30.13R
SIERRA VISTA   PTSUNNY   75  57  53 S6        30.19R
DOUGLAS        PTSUNNY   74  64  71 SE3       30.17R
SAFFORD        SUNNY     77  60  55 CALM      30.05R
$$

AZZ020-021-025-026-031-301500-
SOUTHWEST ARIZONA

CITY           SKY/WX    TMP DP  RH WIND       PRES   REMARKS
YUMA           MOSUNNY   88  56  33 SW5       29.82R
$$

CAZ031-033-041-043-047-048-061-301500-
SOUTHERN CALIFORNIA

CITY           SKY/WX    TMP DP  RH WIND       PRES   REMARKS
DOWNTOWN L.A.  MOSUNNY   69  62  78 CALM      29.94S
L.A. AIRPORT   PTSUNNY   69  63  81 W5        29.96R
SAN DIEGO      MOSUNNY   72  65  78 CALM      29.96S
BURBANK        MOSUNNY   72  58  61 CALM      29.96R
ONTARIO        MOSUNNY   73  57  57 CALM      29.97R
RIVERSIDE      SUNNY     70  56  61 N3        29.97R
PALM SPRINGS   SUNNY     86  58  38 SW3       29.86R
EL CENTRO NAS  MOSUNNY   88  46  23 SW8       29.80R
IMPERIAL       SUNNY     88  48  25 SW6       29.80R
BLYTHE           N/A    N/A N/A N/A MISG      29.82R
NEEDLES        SUNNY     91  53  27 S5        29.87R
$$

NVZ020-UTZ003-301500-
SOUTHERN NEVADA-UTAH

CITY           SKY/WX    TMP DP  RH WIND       PRES   REMARKS
LAS VEGAS      MOSUNNY   87  55  33 S5        29.95R
SALT LAKE CITY PTSUNNY   68  62  81 CALM      30.18R
$$

NMZ009-TXZ055-301500-
NEW MEXICO-WEST TEXAS

CITY           SKY/WX    TMP DP  RH WIND       PRES   REMARKS
ALBUQUERQUE    MOSUNNY   69  59  70 E3        30.23R
EL PASO        PTSUNNY   75  66  73 SE7       30.10R
$$


........................KEY........................
SKY/WX - SKY CONDITION/WEATHER
TMP    - TEMPERATURE IN FAHRENHEIT
DP     - DEW POINT IN FAHRENHEIT
RH     - RELATIVE HUMIDITY IN PERCENT
WIND   - DIRECTION AND SPEED IN MILES PER HOUR (MPH)
VRB    - VARIABLE WIND DIRECTION
PRES   - MEAN SEA LEVEL PRESSURE IN INCHES OF MERCURY
         F - FALLING PRESSURE   R - RISING PRESSURE
         S - STEADY PRESSURE
VSB    - VISIBILITY IN MILES
HX     - HEAT INDEX IN FAHRENHEIT
WCI    - WIND CHILL INDEX IN FAHRENHEIT
TC     - TEMPERATURE IN CELSIUS WHICH IS ALSO KNOWN AS
         TEMPERATURE IN CENTIGRADE
AFB    - AIR FORCE BASE
         LUKE AFB IS LUKE AIR FORCE BASE
         DAVIS-MONTHAN IS DAVIS-MONTHAN AIR FORCE BASE
NAS    - NAVAL AIR STATION
         EL CENTRO NAS IS EL CENTRO NAVAL AIR STATION
N/A    - NOT AVAILABLE



USA.gov is the U.S. government's official web portal to all federal, state and local government web resources and services.